253P/PanSTARRS (2024)

Japanese version
Home page
Updated on September 27, 2024

---------------------------------------------------------------------

* Profile

* Pictures

* Orbital Elements

Epoch 2024 Oct. 17.0 TT = JDT 2460600.5
T 2024 Oct. 20.98377 TT                                 Rudenko
q   2.0267890            (2000.0)            P               Q
n   0.15298487     Peri.  230.81748     +0.95117831     -0.30502544
a   3.4623454      Node   146.86492     +0.30303393     +0.89398856
e   0.4146196      Incl.    4.94412     +0.05856839     +0.32824371
P   6.44
>From 442 observations 1998 Sept. 14-2024 Aug. 31, mean residual 0".6.
     Nongravitational parameters A1 = -0.20, A2 = -0.0062.

* Magnitudes Graph

        m1 = 12.0 + 5 log d + 15.0 log r

---------------------------------------------------------------------

The orbital elements are published on M.P.E.C. 2024-R10.
The magnitudes graphs are made with Comet for Windows.

---------------------------------------------------------------------

Copyright(C) Seiichi Yoshida (comet@aerith.net). All rights reserved.